Regional Weather Roundup
Issued by NWS

Home | Current Version | Previous Version | Text Only | Print | Product List | Glossary On
Versions: 1 2 3 4 5 6 7 8 9 10 11 12 13 14 15 16 17 18 19 20 21 22 23 24 25 26 27 28 29 30 31 32 33 34 35 36 37 38 39 40 41 42 43 44 45 46 47 48 49 50
000
ASUS42 KTBW 211615
RWRFL
FLORIDA REGIONAL WEATHER ROUNDUP
NATIONAL WEATHER SERVICE TAMPA BAY RUSKIN FL
1100 AM EST SAT JAN 21 2017

NOTE: "FAIR" INDICATES FEW OR NO CLOUDS BELOW 12,000 FEET WITH NO
SIGNIFICANT WEATHER AND/OR OBSTRUCTIONS TO VISIBILITY.

FLZ001>010-012>015-112-114-115-211700-
PANHANDLE FLORIDA

CITY           SKY/WX    TMP DP  RH WIND       PRES   REMARKS
PENSACOLA      HVY RAIN  64  60  87 N16G32    29.79R FOG
PENSACOLA NAS  HVY RAIN  65  60  84 NW13G22   29.78R
MILTON NAS     TSTM      60  60 100 VRB5      29.80  VSB 1/2
PANAMA CITY    NOT AVBL

STATION/POSITION SKY/WX   TEMP    WIND        PRES    WAVE   SWELL
                          AIR SEA DIR/SP/G            HT/PER HT/PER
                          (F)     (DEG/KT/KT) (MB)    (FT/S) (FT/S)
30.1N   87.6W              70 66  190/ 14/ 16 1006.8    5/ 6
28.8N   86.0W              76 75              1009.8    6/ 6
PANAMA CITY BEAC           69 67  160/ 12/ 15 1009.4
TOWER C                    72     190/ 19/ 20 1011.3R
28.5N   84.5W              76 73  190/ 16/ 19 1011.4    4/ 6

$$
FLZ011-016>038-118-127-128-134-139-239-211700-
NORTH FLORIDA

CITY           SKY/WX    TMP DP  RH WIND       PRES   REMARKS
TALLAHASSEE    NOT AVBL
GAINESVILLE    NOT AVBL
JACKSONVILLE   NOT AVBL

STATION/POSITION SKY/WX   TEMP    WIND        PRES    WAVE   SWELL
                          AIR SEA DIR/SP/G            HT/PER HT/PER
                          (F)     (DEG/KT/KT) (MB)    (FT/S) (FT/S)
SHELL POINT      NOT AVBL
KEATON BEACH               68     160/ 14/ 17 1012.0R
CEDAR KEY                  69     180/ 14/ 17 1013.1R
FERNANDINA                 70 67  200/  3/  9 1013.8
30.7N   81.3W                 63                N/A     2/12   2/12
MAYPORT                    71 65  220/  2/  6 1013.4
31.4N   80.9W              63 61  180/  8/  8 1012.8    2/12   2/12
ST AUGUSTINE               72 63  220/ 10/ 12 1014.4R

$$
FLZ040-043>046-052-053-057-058-063-144-211700-
INTERIOR CENTRAL FLORIDA

CITY           SKY/WX    TMP DP  RH WIND       PRES   REMARKS
ORLANDO INTL   NOT AVBL

$$
FLZ041-047-054-059-064-141-147-211700-
EAST CENTRAL FLORIDA

CITY           SKY/WX    TMP DP  RH WIND       PRES   REMARKS
DAYTONA BEACH  NOT AVBL
MELBOURNE      NOT AVBL

STATION/POSITION SKY/WX   TEMP    WIND        PRES    WAVE   SWELL
                          AIR SEA DIR/SP/G            HT/PER HT/PER
                          (F)     (DEG/KT/KT) (MB)    (FT/S) (FT/S)
TRIDENT PIER     NOT AVBL
28.4N   80.5W                 70                N/A     2/13   2/13
27.5N   80.2W                 76                N/A     3/12   2/12

$$
FLZ050-056-061-142-242-148-248-149-249-151-251-155-255-
160-260-211700-
WEST CENTRAL FLORIDA

CITY           SKY/WX    TMP DP  RH WIND       PRES   REMARKS
BROOKSVILLE    NOT AVBL
ST PETE CLEARW NOT AVBL
TAMPA INTL     NOT AVBL
TAMPA EXEC     FAIR      79  59  50 S14       29.97S
ST PETERSBURG  NOT AVBL
SARASOTA       NOT AVBL
VENICE         NOT AVBL

STATION/POSITION SKY/WX   TEMP    WIND        PRES    WAVE   SWELL
                          AIR SEA DIR/SP/G            HT/PER HT/PER
                          (F)     (DEG/KT/KT) (MB)    (FT/S) (FT/S)
27.3N   84.2W                 79                N/A     4/ 5
CLEARWATER BEACH           73 68  160/ 12/ 17 1014.0
MIDDLE TAMPA BAY           71     180/ 10/ 11 1014.8
VENICE                     72 69  150/ 15/ 16 1014.4R

$$
FLZ066-069-070-075>078-162-262-165-265-211700-
SOUTHWEST FLORIDA AND KEYS

CITY           SKY/WX    TMP DP  RH WIND       PRES   REMARKS
FT MYERS       NOT AVBL
KEY WEST INTL  NOT AVBL

STATION/POSITION SKY/WX   TEMP    WIND        PRES    WAVE   SWELL
                          AIR SEA DIR/SP/G            HT/PER HT/PER
                          (F)     (DEG/KT/KT) (MB)    (FT/S) (FT/S)
NAPLES                        70              1015.1
26.0N   85.6W              76 75  160/ 17/ 21 1012.1    3/ 5
DRY TORTUGAS               76     160/ 19/ 21 1014.9R
SAND KEY                   76     190/ 20/ 24 1015.4
LONG KEY                   76 74  210/ 11/ 13 1015.7R

$$
FLZ067-068-071>074-168-172>174-211700-
SOUTHEAST FLORIDA

CITY           SKY/WX    TMP DP  RH WIND       PRES   REMARKS
FT LAUDERDALE  NOT AVBL
MIAMI          NOT AVBL
HOMESTEAD      PTSUNNY   75  73  94 S7        29.98F

STATION/POSITION SKY/WX   TEMP    WIND        PRES    WAVE   SWELL
                          AIR SEA DIR/SP/G            HT/PER HT/PER
                          (F)     (DEG/KT/KT) (MB)    (FT/S) (FT/S)
PORT EVERGLADES            77     150/  5/  7 1015.7
VIRGINIA KEY               76 80  180/  9/ 11 1016.1
LAKE WORTH                 74 76  180/  7/ 10 1015.5
FOWEY ROCKS                76 76  150/ 18/ 19 1016.2R

$$




USA.gov is the U.S. government's official web portal to all federal, state and local government web resources and services.